EAG5501 HTZA-HAAB

Flight info

Callsign EAG5501
Flight time 2h 16m
Altitude 37000
Route UVUKO UL431 MOV UN301 ALEMU/N0466F360 UT129 IMKIT IMKIT2A
Aircraft B38M/M-SDE1FGHILORVWXY/HB1

Departure

Time 2026-04-29 16:35
Airport Abeid Amani Karume International Airport (HTZA)

Arrival

Time 2026-04-29 18:51
Airport Addis Ababa Bole International Airport (HAAB)
Time Latitude Longitude Altitude Speed Heading
2026-04-29 16:27 -6.22224 39.22248 61 ft 0 kts 265°
2026-04-29 16:30 -6.22224 39.22250 55 ft 2 kts 265°
2026-04-29 16:30 -6.22223 39.22276 57 ft 4 kts 272°
2026-04-29 16:30 -6.22227 39.22303 59 ft 4 kts 290°
2026-04-29 16:31 -6.22241 39.22323 53 ft 4 kts 336°
2026-04-29 16:31 -6.22248 39.22325 54 ft 1 kts 354°
2026-04-29 16:32 -6.22247 39.22325 54 ft 1 kts 354°
2026-04-29 16:33 -6.22126 39.22312 62 ft 12 kts 354°
2026-04-29 16:33 -6.22034 39.22303 62 ft 16 kts 354°
2026-04-29 16:33 -6.21975 39.22380 62 ft 17 kts 83°
2026-04-29 16:34 -6.21993 39.22471 61 ft 11 kts 171°
2026-04-29 16:34 -6.22209 39.22492 55 ft 70 kts 174°
2026-04-29 16:34 -6.22957 39.22566 60 ft 143 kts 174°
2026-04-29 16:34 -6.24120 39.22687 323 ft 182 kts 173°
2026-04-29 16:35 -6.25300 39.23206 1073 ft 199 kts 136°
2026-04-29 16:35 -6.25848 39.24515 1913 ft 219 kts 94°
2026-04-29 16:35 -6.25395 39.26042 2634 ft 247 kts 60°
2026-04-29 16:35 -6.24028 39.27211 3252 ft 274 kts 25°
2026-04-29 16:36 -6.22105 39.27428 4057 ft 284 kts 347°
2026-04-29 16:36 -6.20339 39.26592 5050 ft 288 kts 324°
2026-04-29 16:36 -6.18662 39.25421 5911 ft 293 kts 325°
2026-04-29 16:36 -6.16799 39.24680 6879 ft 295 kts 355°
2026-04-29 16:37 -6.14774 39.24942 7790 ft 295 kts 18°
2026-04-29 16:37 -6.12767 39.25442 8668 ft 300 kts 12°
2026-04-29 16:37 -6.10707 39.25845 9549 ft 304 kts 11°
2026-04-29 16:37 -6.09327 39.26103 10095 ft 307 kts 11°
2026-04-29 16:38 -6.06434 39.26622 10896 ft 322 kts 10°
2026-04-29 16:38 -6.04204 39.27013 11652 ft 327 kts 10°
2026-04-29 16:38 -6.01947 39.27403 12410 ft 330 kts 10°
2026-04-29 16:38 -5.99705 39.27790 13216 ft 332 kts 10°
2026-04-29 16:39 -5.97403 39.28189 13903 ft 337 kts 10°
2026-04-29 16:39 -5.95075 39.28589 14588 ft 339 kts 10°
2026-04-29 16:39 -5.92742 39.28992 15245 ft 342 kts 10°
2026-04-29 16:39 -5.90373 39.29401 15847 ft 346 kts 10°
2026-04-29 16:40 -5.88024 39.29805 16512 ft 347 kts 10°
2026-04-29 16:40 -5.85628 39.30219 17114 ft 351 kts 10°
2026-04-29 16:40 -5.83201 39.30637 17709 ft 354 kts 10°
2026-04-29 16:40 -5.80762 39.31057 18313 ft 357 kts 10°
2026-04-29 16:41 -5.78298 39.31483 18792 ft 360 kts 11°
2026-04-29 16:41 -5.75823 39.31909 19300 ft 362 kts 11°
2026-04-29 16:41 -5.73333 39.32338 19810 ft 364 kts 11°
2026-04-29 16:41 -5.70831 39.32769 20295 ft 366 kts 11°
2026-04-29 16:42 -5.68340 39.33199 20771 ft 368 kts 12°
2026-04-29 16:42 -5.65805 39.33636 21237 ft 371 kts 12°
2026-04-29 16:42 -5.63246 39.34078 21704 ft 374 kts 12°
2026-04-29 16:42 -5.60667 39.34522 22149 ft 376 kts 12°
2026-04-29 16:43 -5.58104 39.34963 22587 ft 379 kts 12°
2026-04-29 16:43 -5.55489 39.35414 22992 ft 382 kts 13°
2026-04-29 16:43 -5.52853 39.35869 23421 ft 385 kts 13°
2026-04-29 16:43 -5.50207 39.36324 23792 ft 387 kts 13°
2026-04-29 16:44 -5.47533 39.36784 24130 ft 389 kts 13°
2026-04-29 16:44 -5.44853 39.37246 24478 ft 391 kts 13°
2026-04-29 16:44 -5.42194 39.37704 24826 ft 393 kts 13°
2026-04-29 16:44 -5.39479 39.38172 25168 ft 396 kts 13°
2026-04-29 16:45 -5.36758 39.38640 25508 ft 398 kts 13°
2026-04-29 16:45 -5.34009 39.39114 25856 ft 400 kts 13°
2026-04-29 16:45 -5.31290 39.39582 26188 ft 402 kts 13°
2026-04-29 16:45 -5.28513 39.40060 26524 ft 404 kts 12°
2026-04-29 16:46 -5.25723 39.40541 26851 ft 406 kts 12°
2026-04-29 16:46 -5.22959 39.41017 27171 ft 408 kts 12°
2026-04-29 16:46 -5.20117 39.41506 27495 ft 410 kts 12°
2026-04-29 16:46 -5.17329 39.41986 27805 ft 413 kts 12°
2026-04-29 16:47 -5.14486 39.42476 28113 ft 415 kts 12°
2026-04-29 16:47 -5.11633 39.42967 28423 ft 417 kts 12°
2026-04-29 16:47 -5.08759 39.43462 28727 ft 419 kts 12°
2026-04-29 16:47 -5.05908 39.43952 29016 ft 421 kts 12°
2026-04-29 16:48 -5.03016 39.44450 29319 ft 423 kts 12°
2026-04-29 16:48 -5.00102 39.44952 29603 ft 425 kts 12°
2026-04-29 16:48 -4.97172 39.45456 29878 ft 427 kts 12°
2026-04-29 16:48 -4.94228 39.45963 30132 ft 429 kts 12°
2026-04-29 16:49 -4.91271 39.46472 30365 ft 431 kts 12°
2026-04-29 16:49 -4.88299 39.46983 30609 ft 433 kts 12°
2026-04-29 16:49 -4.85361 39.47489 30843 ft 434 kts 12°
2026-04-29 16:49 -4.82377 39.48002 31080 ft 436 kts 12°
2026-04-29 16:50 -4.79378 39.48518 31314 ft 438 kts 12°
2026-04-29 16:50 -4.76362 39.49037 31546 ft 439 kts 12°
2026-04-29 16:50 -4.73334 39.49558 31783 ft 441 kts 12°
2026-04-29 16:50 -4.70338 39.50085 32006 ft 442 kts 13°
2026-04-29 16:51 -4.67311 39.50660 32233 ft 444 kts 13°
2026-04-29 16:51 -4.64263 39.51236 32452 ft 446 kts 13°
2026-04-29 16:51 -4.61206 39.51812 32673 ft 447 kts 13°
2026-04-29 16:51 -4.58145 39.52387 32889 ft 449 kts 13°
2026-04-29 16:52 -4.55069 39.52965 33106 ft 450 kts 13°
2026-04-29 16:52 -4.51972 39.53547 33323 ft 451 kts 13°
2026-04-29 16:52 -4.48913 39.54122 33536 ft 453 kts 13°
2026-04-29 16:52 -4.45813 39.54705 33737 ft 454 kts 13°
2026-04-29 16:53 -4.42692 39.55291 33933 ft 456 kts 13°
2026-04-29 16:53 -4.39559 39.55880 34119 ft 457 kts 13°
2026-04-29 16:53 -4.36451 39.56464 34325 ft 458 kts 13°
2026-04-29 16:53 -4.33325 39.57051 34510 ft 459 kts 13°
2026-04-29 16:54 -4.30182 39.57641 34696 ft 460 kts 13°
2026-04-29 16:54 -4.27025 39.58234 34880 ft 461 kts 13°
2026-04-29 16:54 -4.23863 39.58828 35044 ft 462 kts 13°
2026-04-29 16:54 -4.20690 39.59424 35221 ft 463 kts 13°
2026-04-29 16:55 -4.17557 39.60012 35393 ft 464 kts 13°
2026-04-29 16:55 -4.14374 39.60610 35560 ft 465 kts 13°
2026-04-29 16:55 -4.11187 39.61208 35738 ft 466 kts 13°
2026-04-29 16:55 -4.07997 39.61807 35895 ft 467 kts 13°
2026-04-29 16:56 -4.04789 39.62409 36049 ft 468 kts 13°
2026-04-29 16:56 -4.01616 39.63004 36210 ft 469 kts 13°
2026-04-29 16:56 -3.98399 39.63609 36375 ft 470 kts 13°
2026-04-29 16:56 -3.95168 39.64187 36520 ft 472 kts
2026-04-29 16:57 -3.91889 39.64478 36675 ft 473 kts
2026-04-29 16:57 -3.88641 39.64737 36812 ft 474 kts
2026-04-29 16:57 -3.82069 39.65236 36905 ft 469 kts
2026-04-29 16:58 -3.75549 39.65727 36909 ft 470 kts
2026-04-29 16:58 -3.69045 39.66216 36904 ft 469 kts
2026-04-29 16:59 -3.62549 39.66704 36906 ft 470 kts
2026-04-29 16:59 -3.56023 39.67195 36902 ft 470 kts
2026-04-29 17:00 -3.49521 39.67684 36904 ft 470 kts
2026-04-29 17:00 -3.42982 39.68176 36906 ft 470 kts
2026-04-29 17:01 -3.36474 39.68665 36902 ft 470 kts
2026-04-29 17:01 -3.29922 39.69157 36904 ft 470 kts
2026-04-29 17:02 -3.23430 39.69645 36903 ft 470 kts
2026-04-29 17:02 -3.16893 39.70136 36903 ft 470 kts
2026-04-29 17:03 -3.10406 39.70623 36906 ft 470 kts
2026-04-29 17:03 -3.03881 39.71113 36907 ft 470 kts
2026-04-29 17:04 -2.97347 39.71604 36902 ft 470 kts
2026-04-29 17:04 -2.90846 39.72092 36907 ft 470 kts
2026-04-29 17:05 -2.84320 39.72582 36905 ft 469 kts
2026-04-29 17:05 -2.77797 39.73072 36906 ft 469 kts
2026-04-29 17:06 -2.71307 39.73559 36909 ft 469 kts
2026-04-29 17:06 -2.64788 39.74049 36906 ft 469 kts
2026-04-29 17:07 -2.59375 39.74433 36904 ft 468 kts
2026-04-29 17:07 -2.51822 39.74959 36906 ft 468 kts
2026-04-29 17:08 -2.45318 39.75412 36904 ft 468 kts
2026-04-29 17:08 -2.38814 39.75866 36906 ft 468 kts
2026-04-29 17:09 -2.32349 39.76317 36911 ft 467 kts
2026-04-29 17:09 -2.25888 39.76768 36908 ft 466 kts
2026-04-29 17:10 -2.19386 39.77221 36907 ft 467 kts
2026-04-29 17:10 -2.12904 39.77673 36907 ft 467 kts
2026-04-29 17:11 -2.06464 39.78123 36906 ft 467 kts
2026-04-29 17:11 -1.99973 39.78575 36908 ft 467 kts
2026-04-29 17:12 -1.94563 39.78952 36902 ft 467 kts
2026-04-29 17:12 -1.89161 39.79328 36907 ft 467 kts
2026-04-29 17:13 -1.81594 39.79856 36906 ft 467 kts
2026-04-29 17:13 -1.75099 39.80290 36910 ft 467 kts
2026-04-29 17:14 -1.68613 39.80714 36920 ft 469 kts
2026-04-29 17:14 -1.62112 39.81142 36908 ft 468 kts
2026-04-29 17:15 -1.55603 39.81569 36905 ft 468 kts
2026-04-29 17:15 -1.49132 39.81993 36904 ft 468 kts
2026-04-29 17:16 -1.42626 39.82420 36903 ft 470 kts
2026-04-29 17:16 -1.36082 39.82849 36905 ft 471 kts
2026-04-29 17:17 -1.29576 39.83277 36909 ft 471 kts
2026-04-29 17:17 -1.23026 39.83706 36911 ft 471 kts
2026-04-29 17:18 -1.16477 39.84136 36917 ft 471 kts
2026-04-29 17:18 -1.09987 39.84562 36912 ft 469 kts
2026-04-29 17:19 -1.03459 39.84991 36911 ft 469 kts
2026-04-29 17:19 -0.96930 39.85419 36910 ft 469 kts
2026-04-29 17:20 -0.90460 39.85843 36908 ft 469 kts
2026-04-29 17:20 -0.83945 39.86270 36912 ft 466 kts
2026-04-29 17:21 -0.77475 39.86695 36912 ft 465 kts
2026-04-29 17:21 -0.71045 39.87117 36915 ft 465 kts
2026-04-29 17:22 -0.64578 39.87541 36909 ft 465 kts
2026-04-29 17:22 -0.58110 39.87965 36906 ft 465 kts
2026-04-29 17:23 -0.51711 39.88385 36900 ft 461 kts
2026-04-29 17:23 -0.45293 39.88806 36905 ft 461 kts
2026-04-29 17:24 -0.38911 39.89224 36907 ft 461 kts
2026-04-29 17:24 -0.32502 39.89661 36907 ft 461 kts
2026-04-29 17:25 -0.26104 39.90247 36912 ft 461 kts
2026-04-29 17:25 -0.19737 39.90815 36912 ft 461 kts
2026-04-29 17:26 -0.13319 39.91388 36913 ft 461 kts
2026-04-29 17:26 -0.06959 39.91954 36916 ft 461 kts
2026-04-29 17:27 -0.00561 39.92525 36915 ft 461 kts
2026-04-29 17:27 0.05857 39.93096 36916 ft 461 kts
2026-04-29 17:28 0.12207 39.93662 36916 ft 461 kts
2026-04-29 17:28 0.18615 39.94234 36915 ft 461 kts
2026-04-29 17:29 0.24988 39.94802 36910 ft 461 kts
2026-04-29 17:29 0.30312 39.95277 36911 ft 461 kts
2026-04-29 17:30 0.37753 39.95940 36908 ft 460 kts
2026-04-29 17:30 0.44105 39.96507 36911 ft 460 kts
2026-04-29 17:31 0.50492 39.97076 36908 ft 460 kts
2026-04-29 17:31 0.56880 39.97645 36910 ft 460 kts
2026-04-29 17:32 0.63227 39.98211 36909 ft 461 kts
2026-04-29 17:32 0.69658 39.98784 36908 ft 462 kts
2026-04-29 17:33 0.76018 39.99351 36905 ft 461 kts
2026-04-29 17:33 0.82418 39.99922 36907 ft 461 kts
2026-04-29 17:34 0.88839 40.00494 36903 ft 461 kts
2026-04-29 17:34 0.95217 40.01063 36913 ft 464 kts
2026-04-29 17:35 1.04872 40.01935 36906 ft 464 kts
2026-04-29 17:36 1.11313 40.02517 36909 ft 464 kts
2026-04-29 17:36 1.17750 40.03098 36908 ft 464 kts
2026-04-29 17:37 1.24179 40.03678 36911 ft 468 kts
2026-04-29 17:37 1.30672 40.04265 36906 ft 467 kts
2026-04-29 17:38 1.37163 40.04852 36909 ft 467 kts
2026-04-29 17:38 1.43614 40.05435 36912 ft 467 kts
2026-04-29 17:39 1.50090 40.06019 36914 ft 467 kts
2026-04-29 17:39 1.56573 40.06605 36915 ft 467 kts
2026-04-29 17:40 1.63016 40.07188 36914 ft 467 kts
2026-04-29 17:40 1.69497 40.07773 36912 ft 467 kts
2026-04-29 17:41 1.75937 40.07946 36899 ft 463 kts 349°
2026-04-29 17:41 1.82322 40.06854 36894 ft 465 kts 349°
2026-04-29 17:42 1.88709 40.05740 36931 ft 466 kts 349°
2026-04-29 17:42 1.95059 40.04610 36928 ft 465 kts 349°
2026-04-29 17:43 2.01453 40.03470 36931 ft 466 kts 349°
2026-04-29 17:43 2.07808 40.02337 36929 ft 465 kts 349°
2026-04-29 17:44 2.14186 40.01200 36937 ft 465 kts 349°
2026-04-29 17:44 2.20572 40.00062 36937 ft 465 kts 349°
2026-04-29 17:45 2.26929 39.98928 36941 ft 465 kts 349°
2026-04-29 17:45 2.33313 39.97790 36941 ft 466 kts 349°
2026-04-29 17:46 2.39669 39.96656 36946 ft 464 kts 349°
2026-04-29 17:46 2.46058 39.95517 36949 ft 464 kts 349°
2026-04-29 17:47 2.52391 39.94387 36950 ft 464 kts 349°
2026-04-29 17:47 2.58750 39.93226 36956 ft 464 kts 348°
2026-04-29 17:48 2.65122 39.92021 36956 ft 464 kts 349°
2026-04-29 17:48 2.71442 39.90829 36961 ft 464 kts 349°
2026-04-29 17:49 2.77808 39.89629 36959 ft 464 kts 349°
2026-04-29 17:49 2.84182 39.88427 36957 ft 465 kts 349°
2026-04-29 17:50 2.90499 39.87236 36961 ft 465 kts 349°
2026-04-29 17:50 2.96863 39.86036 36963 ft 463 kts 349°
2026-04-29 17:51 3.03193 39.84842 36961 ft 463 kts 349°
2026-04-29 17:51 3.09488 39.83654 36967 ft 463 kts 349°
2026-04-29 17:52 3.15830 39.82458 36968 ft 463 kts 349°
2026-04-29 17:52 3.22128 39.81270 36975 ft 462 kts 349°
2026-04-29 17:53 3.28495 39.80068 36983 ft 466 kts 349°
2026-04-29 17:53 3.34878 39.78864 36975 ft 465 kts 349°
2026-04-29 17:54 3.41224 39.77666 36982 ft 466 kts 349°
2026-04-29 17:54 3.47599 39.76462 36983 ft 466 kts 349°
2026-04-29 17:55 3.53940 39.75264 36988 ft 466 kts 349°
2026-04-29 17:55 3.60326 39.74059 36992 ft 466 kts 349°
2026-04-29 17:56 3.66681 39.72859 36995 ft 466 kts 349°
2026-04-29 17:56 3.73066 39.71653 36992 ft 466 kts 349°
2026-04-29 17:57 3.79446 39.70447 36998 ft 466 kts 349°
2026-04-29 17:57 3.85799 39.69247 36999 ft 467 kts 349°
2026-04-29 17:58 3.92170 39.68043 36994 ft 467 kts 349°
2026-04-29 17:58 3.98581 39.66832 37007 ft 468 kts 349°
2026-04-29 17:59 4.05019 39.65746 37006 ft 468 kts 350°
2026-04-29 17:59 4.11401 39.64675 37004 ft 467 kts 350°
2026-04-29 18:00 4.17866 39.63588 37013 ft 470 kts 350°
2026-04-29 18:00 4.24285 39.62508 37010 ft 471 kts 350°
2026-04-29 18:01 4.30742 39.61422 37004 ft 470 kts 350°
2026-04-29 18:01 4.36122 39.60517 37008 ft 471 kts 350°
2026-04-29 18:02 4.42602 39.59427 36997 ft 471 kts 350°
2026-04-29 18:02 4.49048 39.58342 36999 ft 472 kts 350°
2026-04-29 18:03 4.55538 39.57250 37004 ft 473 kts 350°
2026-04-29 18:03 4.62036 39.56156 36997 ft 473 kts 350°
2026-04-29 18:04 4.68488 39.55069 36993 ft 472 kts 350°
2026-04-29 18:04 4.75000 39.53973 37006 ft 471 kts 351°
2026-04-29 18:05 4.81419 39.52891 37001 ft 470 kts 351°
2026-04-29 18:05 4.87881 39.51803 37008 ft 470 kts 351°
2026-04-29 18:06 4.94345 39.50713 37017 ft 470 kts 351°
2026-04-29 18:06 5.00761 39.49632 37015 ft 470 kts 351°
2026-04-29 18:07 5.07236 39.48540 37025 ft 470 kts 351°
2026-04-29 18:07 5.13642 39.47460 37023 ft 470 kts 351°
2026-04-29 18:08 5.20109 39.46369 37029 ft 470 kts 351°
2026-04-29 18:08 5.26530 39.45286 37028 ft 470 kts 351°
2026-04-29 18:09 5.32986 39.44197 37043 ft 468 kts 351°
2026-04-29 18:09 5.39420 39.43112 37042 ft 468 kts 351°
2026-04-29 18:10 5.45819 39.42031 37037 ft 468 kts 351°
2026-04-29 18:10 5.52261 39.40943 37041 ft 468 kts 351°
2026-04-29 18:11 5.58663 39.39863 37050 ft 469 kts 351°
2026-04-29 18:11 5.65104 39.38776 37052 ft 468 kts 351°
2026-04-29 18:12 5.71514 39.37756 37056 ft 468 kts 352°
2026-04-29 18:12 5.77955 39.36740 37056 ft 468 kts 352°
2026-04-29 18:13 5.84360 39.35736 37055 ft 468 kts 351°
2026-04-29 18:13 5.90823 39.34706 37052 ft 468 kts 352°
2026-04-29 18:14 5.97219 39.33648 37054 ft 467 kts 351°
2026-04-29 18:14 6.03615 39.32595 37053 ft 467 kts 352°
2026-04-29 18:15 6.10036 39.31537 37060 ft 467 kts 352°
2026-04-29 18:15 6.16457 39.30479 37074 ft 467 kts 352°
2026-04-29 18:16 6.22884 39.29419 37071 ft 468 kts 352°
2026-04-29 18:16 6.29282 39.28360 37081 ft 468 kts 352°
2026-04-29 18:17 6.35730 39.27299 37082 ft 468 kts 352°
2026-04-29 18:17 6.42178 39.26239 37094 ft 468 kts 352°
2026-04-29 18:18 6.48576 39.25185 37117 ft 468 kts 352°
2026-04-29 18:18 6.55001 39.24152 37118 ft 470 kts 352°
2026-04-29 18:19 6.61492 39.23109 37124 ft 470 kts 352°
2026-04-29 18:19 6.67924 39.22075 37123 ft 470 kts 352°
2026-04-29 18:20 6.74387 39.21037 37124 ft 470 kts 352°
2026-04-29 18:20 6.80865 39.19992 37131 ft 471 kts 352°
2026-04-29 18:21 6.87359 39.18936 37123 ft 472 kts 352°
2026-04-29 18:21 6.93811 39.17891 37121 ft 473 kts 351°
2026-04-29 18:22 7.00303 39.16849 37117 ft 472 kts 352°
2026-04-29 18:22 7.06710 39.15408 37027 ft 471 kts 335°
2026-04-29 18:22 7.09443 39.13664 36796 ft 463 kts 317°
2026-04-29 18:23 7.11717 39.11433 37086 ft 459 kts 319°
2026-04-29 18:23 7.16685 39.07393 37157 ft 464 kts 321°
2026-04-29 18:24 7.21781 39.03270 37118 ft 472 kts 321°
2026-04-29 18:24 7.26872 38.99147 37097 ft 473 kts 321°
2026-04-29 18:25 7.32006 38.94989 37098 ft 473 kts 321°
2026-04-29 18:25 7.37141 38.90829 37069 ft 473 kts 321°
2026-04-29 18:26 7.42279 38.86663 37066 ft 476 kts 321°
2026-04-29 18:26 7.47434 38.82485 37024 ft 478 kts 321°
2026-04-29 18:27 7.52622 38.78278 37030 ft 477 kts 321°
2026-04-29 18:27 7.57792 38.74084 37013 ft 478 kts 321°
2026-04-29 18:28 7.62962 38.69888 36997 ft 478 kts 321°
2026-04-29 18:28 7.68156 38.65672 37008 ft 479 kts 321°
2026-04-29 18:29 7.73308 38.61488 37002 ft 476 kts 321°
2026-04-29 18:29 7.78472 38.57294 37001 ft 475 kts 321°
2026-04-29 18:30 7.83612 38.53117 37007 ft 476 kts 322°
2026-04-29 18:30 7.88791 38.48908 37005 ft 480 kts 322°
2026-04-29 18:31 7.93982 38.44686 37014 ft 477 kts 322°
2026-04-29 18:31 7.99139 38.40493 36487 ft 473 kts 321°
2026-04-29 18:31 8.01729 38.38388 35360 ft 483 kts 322°
2026-04-29 18:32 8.04297 38.36296 34600 ft 476 kts 322°
2026-04-29 18:32 8.09394 38.32147 32957 ft 462 kts 323°
2026-04-29 18:32 8.11849 38.30148 32242 ft 453 kts 323°
2026-04-29 18:33 8.14296 38.28157 31533 ft 453 kts 322°
2026-04-29 18:33 8.16633 38.25947 30692 ft 466 kts 313°
2026-04-29 18:33 8.18484 38.23220 29717 ft 475 kts 297°
2026-04-29 18:33 8.19695 38.20133 28847 ft 482 kts 291°
2026-04-29 18:34 8.21154 38.17104 28247 ft 480 kts 304°
2026-04-29 18:34 8.22362 38.15166 27936 ft 481 kts 302°
2026-04-29 18:34 8.24789 38.11462 27033 ft 475 kts 313°
2026-04-29 18:34 8.27180 38.09185 26315 ft 472 kts 320°
2026-04-29 18:35 8.29637 38.07005 25747 ft 467 kts 320°
2026-04-29 18:35 8.32087 38.04854 25120 ft 464 kts 320°
2026-04-29 18:35 8.34536 38.02723 24487 ft 462 kts 320°
2026-04-29 18:35 8.36984 38.00701 23825 ft 460 kts 327°
2026-04-29 18:36 8.39850 37.99255 22887 ft 461 kts 342°
2026-04-29 18:36 8.42981 37.98640 22170 ft 456 kts 358°
2026-04-29 18:36 8.46112 37.98840 21671 ft 446 kts 12°
2026-04-29 18:36 8.49046 37.99770 21180 ft 438 kts 25°
2026-04-29 18:37 8.51631 38.01305 20519 ft 435 kts 38°
2026-04-29 18:37 8.53869 38.03359 19803 ft 434 kts 49°
2026-04-29 18:37 8.55599 38.05868 19141 ft 432 kts 60°
2026-04-29 18:37 8.57013 38.08539 18541 ft 429 kts 64°
2026-04-29 18:38 8.58044 38.11362 17823 ft 428 kts 72°
2026-04-29 18:38 8.58908 38.14190 17274 ft 423 kts 73°
2026-04-29 18:38 8.59733 38.17009 17019 ft 411 kts 73°
2026-04-29 18:38 8.60520 38.19759 16765 ft 399 kts 73°
2026-04-29 18:39 8.61264 38.22397 16565 ft 388 kts 73°
2026-04-29 18:39 8.61988 38.24988 16363 ft 374 kts 73°
2026-04-29 18:39 8.62673 38.27447 16223 ft 352 kts 73°
2026-04-29 18:39 8.63317 38.29758 16023 ft 333 kts 73°
2026-04-29 18:40 8.63931 38.31965 15820 ft 317 kts 73°
2026-04-29 18:40 8.64508 38.34038 15609 ft 302 kts 73°
2026-04-29 18:40 8.65065 38.36041 15409 ft 288 kts 73°
2026-04-29 18:40 8.65594 38.37941 15207 ft 274 kts 73°
2026-04-29 18:41 8.67119 38.43420 14641 ft 267 kts 73°
2026-04-29 18:41 8.67621 38.45230 14423 ft 268 kts 73°
2026-04-29 18:42 8.68113 38.46999 14288 ft 259 kts 73°
2026-04-29 18:42 8.68645 38.48714 14068 ft 252 kts 64°
2026-04-29 18:42 8.69722 38.50081 13771 ft 250 kts 38°
2026-04-29 18:42 8.71189 38.51000 13506 ft 246 kts 32°
2026-04-29 18:43 8.72654 38.51844 13272 ft 240 kts 31°
2026-04-29 18:43 8.74103 38.52660 13031 ft 235 kts 31°
2026-04-29 18:43 8.75473 38.53418 12870 ft 219 kts 31°
2026-04-29 18:43 8.76775 38.54132 12647 ft 206 kts 32°
2026-04-29 18:44 8.78019 38.54810 12425 ft 202 kts 31°
2026-04-29 18:44 8.79270 38.55489 12249 ft 210 kts 31°
2026-04-29 18:44 8.80605 38.56214 12097 ft 223 kts 31°
2026-04-29 18:44 8.81972 38.56952 11902 ft 228 kts 32°
2026-04-29 18:45 8.83273 38.57876 11661 ft 226 kts 41°
2026-04-29 18:45 8.84450 38.58868 11403 ft 214 kts 43°
2026-04-29 18:45 8.85567 38.59805 11169 ft 202 kts 43°
2026-04-29 18:45 8.86620 38.60685 10954 ft 191 kts 43°
2026-04-29 18:46 8.87666 38.61484 10761 ft 187 kts 39°
2026-04-29 18:46 8.88725 38.62266 10591 ft 189 kts 38°
2026-04-29 18:46 8.89789 38.63055 10459 ft 190 kts 38°
2026-04-29 18:46 8.90843 38.63838 10293 ft 189 kts 38°
2026-04-29 18:47 8.91902 38.64629 10121 ft 189 kts 41°
2026-04-29 18:47 8.92712 38.65635 9912 ft 182 kts 64°
2026-04-29 18:47 8.93297 38.66694 9888 ft 161 kts 60°
2026-04-29 18:47 8.93838 38.67666 9897 ft 160 kts 63°
2026-04-29 18:48 8.94347 38.68669 9875 ft 160 kts 64°
2026-04-29 18:48 8.94737 38.69725 9697 ft 160 kts 75°
2026-04-29 18:48 8.95036 38.70809 9420 ft 159 kts 74°
2026-04-29 18:48 8.95348 38.71885 9101 ft 159 kts 73°
2026-04-29 18:49 8.95659 38.72951 8789 ft 160 kts 73°
2026-04-29 18:49 8.95979 38.74035 8414 ft 161 kts 73°
2026-04-29 18:49 8.96286 38.75119 8093 ft 163 kts 75°
2026-04-29 18:49 8.96596 38.76217 7850 ft 163 kts 72°
2026-04-29 18:50 8.96930 38.77306 7737 ft 162 kts 75°
2026-04-29 18:50 8.97254 38.78417 7600 ft 166 kts 74°
2026-04-29 18:50 8.97466 38.79153 7546 ft 160 kts 73°
2026-04-29 18:50 8.97787 38.80252 7556 ft 81 kts 73°
2026-04-29 18:51 8.97895 38.80567 7554 ft 36 kts 59°
2026-04-29 18:51 8.97999 38.80690 7553 ft 22 kts 42°
2026-04-29 18:51 8.98066 38.80750 7553 ft 12 kts 21°
2026-04-29 18:51 8.98133 38.80715 7553 ft 11 kts 331°
2026-04-29 18:52 8.98203 38.80721 7551 ft 11 kts 33°
2026-04-29 18:52 8.98263 38.80764 7553 ft 11 kts 40°
2026-04-29 18:52 8.98326 38.80776 7554 ft 9 kts 342°
2026-04-29 18:52 8.98338 38.80772 7554 ft 0 kts 343°